Location: الشقيري
(17.1356°N, 42.8272°E)
Time: 20:39:48
(UTC+00:00)

N. Korean satellite - Pass Details

Date: 25 November 2019
Orbit: 456 x 506 km, 97.2° (Epoch: 05 December)

Event Time Altitude Azimuth Distance (km) Brightness Sun altitude
Rises 02:07:34 0° 32° (NNE) 2,553 10.4 -16.8°
Reaches altitude 10° 02:10:04 10° 49° (NE) 1,661 9.7 -16.3°
Maximum altitude 02:12:44 20° 98° (E) 1,161 9.5 -15.7°
Drops below altitude 10° 02:15:22 10° 147° (SSE) 1,636 10.0 -15.1°
Sets 02:17:47 0° 164° (SSE) 2,502 10.7 -14.5°
